Location: Newark
(41.8083°N, 72.2500°W)
Time: 01:37:55
(UTC+00:00)

Vanguard 1 Rocket - Pass Details

Date: 08 December 2021
Orbit: 651 x 4224 km, 34.3° (Epoch: 15 January)

Event Time Altitude Azimuth Distance (km) Brightness Sun altitude
Exits shadow 08:30:42 61° 210° (SSW) 2,605 9.3 -38.9°
Maximum altitude 08:32:33 65° 179° (S) 2,700 9.5 -38.5°
Drops below altitude 10° 08:53:16 10° 104° (ESE) 6,960 12.6 -34.7°
Sets 08:59:31 0° 103° (ESE) 8,278 13.3 -33.5°
